Flag for Ireland Weather past 2 weeks in Letterkenny, Ireland

Now
59 °F

Smoke.


Feels Like: 59 °F
Forecast: 52 / 68 °F
Wind: 2 mph from East

Location: Castlederg

Current Time: Sep 17, 2014 at 9:27:46 PM

Latest Report: Sep 17, 2014 at 8:00 PM


Visibility: 4 mi

Pressure: 29.93 "Hg

Humidity: 91%

Dew point: 56 °F

Location of LetterkennyLocation

Historic Weather in Letterkenny — Graph

°F

Letterkenny temperature yesterday

Maximum temperature yesterday: 67 °F (at 5:00 PM)
Minimum temperature yesterday: 51 °F (at 8:00 AM)
Average temperature yesterday: 58 °F

Past Weeks' High & Low Weather Summary

 TemperatureHumidityPressure
High72 °F (Sep 11, 5:00 PM)100% (Sep 5, 3:00 AM)30.35 "Hg (Sep 5, 3:00 AM)
Low39 °F (Sep 8, 4:00 AM)51% (Sep 9, 4:00 PM)29.92 "Hg (Sep 17, 5:00 PM)
Average56 °F85%30.15 "Hg
* Reported Sep 2 8:00 PM — Sep 17 8:00 PM, Letterkenny, Weather by CustomWeather, © 2014

Note: Actual official high and low records may vary slightly from our data, if they occured in-between our weather recording intervals... More about our weather records

Advertising

Letterkenny weather history for previous 24 hours

 ConditionsComfort  
Time TempWeatherWind HumidityBarometerVisibility
8:00 PM
Sep 17
59 °FSmoke.2 mph91%29.93 "Hg4 mi
7:00 PM63 °FSmoke.2 mph81%29.92 "Hg5 mi
6:00 PM65 °FSmoke.6 mph74%29.92 "Hg7 mi
5:00 PM66 °FMild.7 mph73%29.92 "Hg8 mi
3:00 PM65 °FSmoke.7 mph74%29.93 "Hg6 mi
2:00 PM67 °FMild.6 mph72%29.94 "Hg6 mi
1:00 PM64 °FSmoke.6 mph81%29.96 "Hg6 mi
12:00 PM61 °FSmoke.7 mph88%29.96 "Hg4 mi
11:00 AM59 °FFog.7 mph97%29.98 "Hg3 mi
10:00 AM58 °FFog.7 mph100%29.98 "Hg2 mi
9:00 AM56 °FFog.7 mph100%29.98 "Hg2 mi
8:00 AM56 °FFog.6 mph100%29.97 "Hg2 mi
7:00 AM49 °FFog.1 mph100%29.96 "Hg2 mi
6:00 AM48 °FCool.1 mph100%29.96 "Hg3 mi
5:00 AM45 °FDuststorm.1 mph100%29.96 "Hg0 mi
4:00 AM45 °FDuststorm.1 mph100%29.97 "Hg1 mi
3:00 AM47 °FDuststorm.1 mph100%29.98 "Hg1 mi
2:00 AM46 °FDuststorm.2 mph100%29.98 "Hg0 mi
1:00 AM48 °FDuststorm.1 mph100%29.99 "Hg0 mi
12:00 AM50 °FCool.2 mph100%29.99 "Hg2 mi
11:00 PM
Sep 16
53 °FFog.1 mph100%29.99 "Hg1 mi
10:00 PM54 °FFog.1 mph100%29.99 "Hg3 mi
9:00 PM56 °FSmoke.No wind91%29.98 "Hg4 mi
Weather by CustomWeather, © 2014

See weather overviewHow to use our weather pages